Simultaneous Nadir Overpasses (SNOs) Predictions

Prediction of SNOs between FY3D and AQUA Satellite Orbit:

Table of predicted SNOs for the next 14.0 days since TLE Epoch: 7/11/2020
Index Date (FY3D) Time (FY3D) Lat,Lon (FY3D) SZA (FY3D ) Date (AQUA) Time (AQUA) Lat,Lon (AQUA) SZA (AQUA ) Distance(km) Time Diff (sec)
1 07/12/2020 14:02:51 -62.29, 8.94 89.33 07/12/2020 14:03:14 -62.30, 8.98 89.37 2.10 23
2 07/12/2020 14:51:58 67.52,-178.57 85.27 07/12/2020 14:51:07 67.52,-178.56 85.32 0.45 51
3 07/15/2020 06:19:24 -61.75, 124.41 88.37 07/15/2020 06:19:53 -61.75, 124.45 88.41 1.75 29
4 07/15/2020 07:08:30 67.04, -63.22 86.18 07/15/2020 07:07:45 67.05, -63.21 86.22 0.65 45
5 07/17/2020 22:35:55 -61.32,-120.01 87.49 07/17/2020 22:36:30 -61.32,-119.99 87.53 1.04 35
6 07/17/2020 23:25:00 66.68, 52.27 87.01 07/17/2020 23:24:21 66.68, 52.28 87.05 0.40 39
7 07/20/2020 14:52:24 -60.94, -4.38 86.62 07/20/2020 14:53:05 -60.94, -4.38 86.67 0.04 41
8 07/20/2020 15:41:27 66.42, 167.90 87.77 07/20/2020 15:40:54 66.42, 167.89 87.81 0.29 33
9 07/23/2020 07:08:52 -60.67, 111.33 85.83 07/23/2020 07:09:39 -60.67, 111.31 85.88 1.38 47
